Lay Lake Weather Center

Moon Phase Calendar



Lay Lake Water Level
Online Cameras

 


      

Current Conditions in Shelby
6/24/2024 5:55:30 AM

76°F
Feels Like 78
Clouds
Humidity
93%
Pressure
29.97"
Wind
2.5 mph (WNW)
Dew Point
74°F
UV Index
0/10 (Low)
Visibility
5 mi

Hourly Forecast

Date & Time Mon, Jun 24
5:00 AM
Mon, Jun 24
6:00 AM
Mon, Jun 24
7:00 AM
Mon, Jun 24
8:00 AM
Mon, Jun 24
9:00 AM
Mon, Jun 24
10:00 AM
Mon, Jun 24
11:00 AM
Mon, Jun 24
12:00 PM
Mon, Jun 24
1:00 PM
Mon, Jun 24
2:00 PM
Mon, Jun 24
3:00 PM
Mon, Jun 24
4:00 PM
Mon, Jun 24
5:00 PM
Mon, Jun 24
6:00 PM
Mon, Jun 24
7:00 PM
Mon, Jun 24
8:00 PM
Mon, Jun 24
9:00 PM
Mon, Jun 24
10:00 PM
Mon, Jun 24
11:00 PM
Tue, Jun 25
12:00 AM
Tue, Jun 25
1:00 AM
Tue, Jun 25
2:00 AM
Tue, Jun 25
3:00 AM
Tue, Jun 25
4:00 AM
Tue, Jun 25
5:00 AM
Tue, Jun 25
6:00 AM
Tue, Jun 25
7:00 AM
Tue, Jun 25
8:00 AM
Tue, Jun 25
9:00 AM
Tue, Jun 25
10:00 AM
Tue, Jun 25
11:00 AM
Tue, Jun 25
12:00 PM
Tue, Jun 25
1:00 PM
Tue, Jun 25
2:00 PM
Tue, Jun 25
3:00 PM
Tue, Jun 25
4:00 PM
Tue, Jun 25
5:00 PM
Tue, Jun 25
6:00 PM
Tue, Jun 25
7:00 PM
Tue, Jun 25
8:00 PM
Tue, Jun 25
9:00 PM
Tue, Jun 25
10:00 PM
Tue, Jun 25
11:00 PM
Wed, Jun 26
12:00 AM
Wed, Jun 26
1:00 AM
Wed, Jun 26
2:00 AM
Wed, Jun 26
3:00 AM
Wed, Jun 26
4:00 AM
Condition
Clouds

Clouds

Clouds

Clouds

Clouds

Rain

Rain

Clouds

Clouds

Clouds

Clouds

Clouds

Clouds

Clouds

Clouds

Clear

Clear

Clear

Clear

Clear

Clear

Clear

Clear

Clear

Clear

Clear

Clear

Clear

Clear

Clear

Clear

Clear

Clear

Clear

Clear

Clear

Clouds

Clouds

Clouds

Clouds

Clouds

Clouds

Clouds

Clouds

Clouds

Clear

Clear

Clear
Temperature 76°F76°F76°F76°F78°F82°F87°F92°F96°F98°F99°F99°F97°F94°F87°F80°F78°F76°F75°F73°F72°F71°F70°F69°F69°F68°F72°F78°F84°F89°F93°F96°F98°F99°F100°F100°F98°F96°F88°F82°F80°F78°F77°F76°F75°F74°F73°F72°F
Feels Like 77°F78°F78°F78°F80°F89°F94°F98°F100°F99°F99°F98°F96°F94°F88°F82°F78°F77°F75°F74°F73°F72°F71°F70°F69°F69°F73°F78°F84°F89°F93°F95°F96°F98°F98°F99°F97°F96°F90°F83°F80°F79°F77°F76°F75°F75°F73°F72°F
Cloudiness 83%84%85%90%83%62%53%63%70%100%100%68%52%44%56%2%1%1%1%1%0%0%0%0%1%2%2%0%0%0%0%1%2%0%5%7%17%16%19%60%64%42%32%26%21%2%3%3%
Visibility 6 mi5 mi6 mi6 mi6 mi6 mi6 mi6 mi6 mi6 mi6 mi6 mi6 mi6 mi6 mi6 mi6 mi6 mi6 mi6 mi6 mi6 mi6 mi6 mi6 mi6 mi6 mi6 mi6 mi6 mi6 mi6 mi6 mi6 mi6 mi6 mi6 mi6 mi6 mi6 mi6 mi6 mi6 mi6 mi6 mi6 mi6 mi6 mi
Precipitation 69%72%90%0%20%100%100%80%80%0%0%0%0%0%0%0%0%0%0%0%0%0%0%0%0%0%0%0%0%0%0%0%0%0%0%0%0%0%0%0%0%0%0%0%0%0%0%0%
Humidity 92%93%92%91%88%80%63%51%40%32%28%25%26%34%46%57%62%68%72%75%77%77%78%79%79%79%73%58%47%39%33%28%25%24%23%24%25%31%45%55%58%60%60%62%63%64%67%68%
Dew Point 73°F74°F74°F74°F74°F75°F72°F71°F68°F63°F60°F58°F57°F61°F64°F64°F64°F65°F65°F65°F64°F64°F63°F63°F62°F61°F63°F62°F62°F62°F60°F58°F56°F56°F56°F56°F57°F61°F64°F64°F64°F63°F62°F62°F62°F62°F61°F61°F
Pressure 29.97"29.97"29.97"29.97"29.94"29.94"29.94"29.94"29.91"29.88"29.85"29.85"29.85"29.85"29.85"29.88"29.88"29.91"29.91"29.91"29.91"29.91"29.91"29.94"29.94"29.94"29.97"29.97"29.97"29.97"29.97"29.94"29.94"29.91"29.88"29.88"29.85"29.85"29.88"29.88"29.88"29.91"29.88"29.88"29.91"29.88"29.88"29.88"
Wind Speed 2.3 mph2.5 mph2 mph2.5 mph2.6 mph4 mph4.3 mph3.7 mph2.5 mph3.2 mph5.1 mph7.8 mph9.9 mph8.8 mph7.9 mph5.8 mph5.6 mph5.3 mph4.9 mph4.6 mph4.5 mph4.5 mph4 mph3.2 mph3.1 mph3 mph2.7 mph2.8 mph2.7 mph2.3 mph3.1 mph3.9 mph5 mph4.9 mph5.1 mph6.4 mph7.6 mph7.6 mph6.3 mph4.9 mph4.4 mph3.1 mph3.4 mph2.8 mph3.6 mph2.5 mph2.8 mph0.9 mph
Wind
Direction
316°
NW
299°
WNW
310°
NW
310°
NW
312°
NW
326°
NW
340°
NNW
336°
NNW
351°
N
27°
NNE
26°
NNE
15°
NNE
14°
NNE
16°
NNE
15°
NNE

N
12°
NNE
18°
NNE
28°
NNE
34°
NE
39°
NE
42°
NE
48°
NE
49°
NE
47°
NE
47°
NE
36°
NE
41°
NE
23°
NNE
11°
N
351°
N
340°
NNW
345°
NNW
356°
N
19°
NNE
31°
NNE
29°
NNE
27°
NNE
21°
NNE
25°
NNE
43°
NE
47°
NE
53°
NE
45°
NE
40°
NE
84°
E
180°
S
185°
S

Daily Forecast

Date High Low Precip. Humidity
Today
Jun 24

Rain
99 °F
75 °F
100%
51%
Tuesday
Jun 25

Clear
100 °F
68 °F
0%
28%
Wednesday
Jun 26

Rain
102 °F
71 °F
33%
31%
Thursday
Jun 27

Rain
95 °F
68 °F
27%
41%
Friday
Jun 28

Clouds
94 °F
72 °F
0%
43%
Saturday
Jun 29

Rain
98 °F
77 °F
85%
45%
Sunday
Jun 30

Rain
100 °F
74 °F
77%
35%
Monday
Jul 1

Rain
98 °F
78 °F
25%
41%
Tuesday
Jul 2

Clear
102 °F
74 °F
0%
33%
Wednesday
Jul 3

Rain
101 °F
75 °F
100%
41%
Thursday
Jul 4

Rain
99 °F
74 °F
100%
38%
Friday
Jul 5

Rain
92 °F
74 °F
100%
72%
Saturday
Jul 6

Rain
91 °F
71 °F
100%
51%
Sunday
Jul 7

Rain
93 °F
71 °F
56%
46%
Monday
Jul 8

Rain
97 °F
70 °F
100%
41%
Tuesday
Jul 9

Rain
98 °F
72 °F
100%
38%

Temperature 8-14 Day Outlook



Precipitation 8-14 Day Outlook




Quick Links
Lay Lake News
Lay Lake Photos
Lay Lake Videos




About Us
Contact Us
Site Map
Search Site
Advertise With Us
   
www.LayLake.info
THE LAY LAKE WEBSITE

Copyright 2024, Lakes Online
Privacy    |    Legal